Station TAQT2 - 8775296 - USS Lexington, TX Image indicating link to RSS feed of recent meteorological observations for station TAQT2


Conditions at TAQT2 as of
(11:48 am CDT)
1648 GMT on 04/14/2024:
     

Click on the graph icon in the table below to see a time series plot of the last five days of that observation.

5-day plot - Atmospheric Pressure Atmospheric Pressure (PRES):30.00 in
5-day plot - Water Temperature Water Temperature (WTMP): 74.1 °F
Previous observations
TIME
(CDT)
5-day plot - Wind Direction
WDIR
 
5-day plot - Wind Speed
WSPD
kts
5-day plot - Wind Gust
GST
kts
5-day plot - Wave Height
WVHT
ft
5-day plot - Dominant Wave Period
DPD
sec
5-day plot - Average Wave Period
APD
sec
5-day plot - Mean Wave Direction
MWD
 
5-day plot - Atmospheric Pressure
PRES
in
5-day plot - Pressure Tendency
PTDY
in
5-day plot - Air Temperature
ATMP
°F
5-day plot - Water Temperature
WTMP
°F
5-day plot - Dew Point
DEWP
°F
5-day plot - Salinity
SAL
psu
5-day plot - Visibility
VIS
nmi
5-day plot - Tide (above MLLW)
TIDE
ft
2024-04-14 11:42 am-------30.00-- 74.1----
2024-04-14 11:36 am-------30.01-- 74.1----
2024-04-14 11:30 am-------30.02-- 74.1----
2024-04-14 11:24 am-------30.01-- 74.1----
2024-04-14 11:18 am-------30.01-- 73.9----
2024-04-14 11:12 am-------30.01-- 73.9----
2024-04-14 11:06 am-------30.01-- 73.9----
2024-04-14 11:00 am-------30.01+0.02- 73.9----
2024-04-14 10:54 am-------30.01-- 73.9----
2024-04-14 10:48 am-------30.01-- 73.9----
2024-04-14 10:42 am-------30.01-- 73.9----
2024-04-14 10:36 am-------30.01-- 73.9----
2024-04-14 10:30 am-------30.01-- 73.9----
2024-04-14 10:24 am-------30.00-- 73.9----
2024-04-14 10:18 am-------30.00-- 73.9----
2024-04-14 10:12 am-------30.00-- 73.9----
2024-04-14 10:06 am-------30.00-- 73.9----
2024-04-14 10:00 am-------30.00+0.01- 73.9----
2024-04-14 09:54 am-------30.00-- 73.9----
2024-04-14 09:48 am-------30.00-- 73.9----
2024-04-14 09:42 am-------30.00-- 73.9----
2024-04-14 09:36 am-------29.99-- 73.9----
2024-04-14 09:30 am-------29.99-- 73.9----
2024-04-14 09:24 am-------29.99-- 73.9----
2024-04-14 09:18 am-------30.00-- 73.9----
2024-04-14 09:12 am-------30.00-- 73.9----
2024-04-14 09:06 am-------29.99-- 73.9----
2024-04-14 09:00 am-------30.00+0.02- 73.9----
2024-04-14 08:54 am-------30.00-- 73.9----
2024-04-14 08:48 am-------29.99-- 73.9----
2024-04-14 08:42 am-------29.99-- 73.9----
2024-04-14 08:36 am-------29.99-- 73.9----
2024-04-14 08:30 am-------29.99-- 73.9----
2024-04-14 08:24 am-------29.99-- 73.9----
2024-04-14 08:18 am-------29.99-- 73.9----
2024-04-14 08:12 am-------29.99-- 73.9----
2024-04-14 08:06 am-------29.99-- 73.9----
2024-04-14 08:00 am-------29.98+0.01- 73.9----
2024-04-14 07:54 am-------29.99-- 74.1----
2024-04-14 07:48 am-------29.99-- 74.1----
2024-04-14 07:42 am-------29.98-- 74.1----
2024-04-14 07:36 am-------29.98-- 74.1----
2024-04-14 07:30 am-------29.98-- 74.1----
2024-04-14 07:24 am-------29.98-- 74.1----
2024-04-14 07:18 am-------29.98-- 74.1----
2024-04-14 07:12 am-------29.98-- 74.1----
2024-04-14 07:06 am-------29.98-- 74.1----
2024-04-14 07:00 am-------29.98+0.00- 74.1----
2024-04-14 06:54 am-------29.98-- 74.1----
2024-04-14 06:48 am-------29.98-- 74.1----
2024-04-14 06:42 am-------29.98-- 74.1----
2024-04-14 06:36 am-------29.98-- 74.1----
2024-04-14 06:30 am-------29.98-- 74.3----
2024-04-14 06:24 am-------29.98-- 74.3----
2024-04-14 06:18 am-------29.98-------
2024-04-14 06:12 am-------29.98-------
2024-04-14 06:06 am-------29.98-------
2024-04-14 06:00 am-------29.98-0.02- 74.3----
2024-04-14 05:54 am-------29.98-- 74.3----
2024-04-14 05:48 am-------29.98-- 74.3----
2024-04-14 05:42 am-------29.98-- 74.3----
2024-04-14 05:36 am-------29.98-- 74.3----
2024-04-14 05:30 am-------29.98-- 74.3----
2024-04-14 05:24 am-------29.98-- 74.3----
2024-04-14 05:18 am-------29.98-- 74.5----
2024-04-14 05:12 am-------29.97-- 74.5----
2024-04-14 05:06 am-------29.97-- 74.5----
2024-04-14 05:00 am-------29.98-0.04- 74.5----
2024-04-14 04:54 am-------29.98-- 74.5----
2024-04-14 04:48 am---------- 74.5----
2024-04-14 04:42 am---------- 74.5----
2024-04-14 04:36 am---------- 74.5----
2024-04-14 04:30 am-------29.97-- 74.5----
2024-04-14 04:24 am-------29.97-- 74.5----
2024-04-14 04:18 am-------29.97-- 74.5----
2024-04-14 04:12 am-------29.97-- 74.5----
2024-04-14 04:06 am-------29.97-- 74.5----
2024-04-14 04:00 am-------29.98-0.04- 74.5----
2024-04-14 03:54 am-------29.98-- 74.5----
2024-04-14 03:48 am-------29.98-- 74.5----
2024-04-14 03:42 am-------29.99-- 74.5----
2024-04-14 03:36 am-------29.99-- 74.5----
2024-04-14 03:30 am-------29.99-- 74.5----
2024-04-14 03:24 am-------29.99-- 74.5----
2024-04-14 03:18 am-------29.99-- 74.5----
2024-04-14 03:12 am-------30.00-- 74.5----
2024-04-14 03:06 am-------30.00-- 74.5----
2024-04-14 03:00 am-------30.00-0.03- 74.5----
2024-04-14 02:54 am-------30.00-- 74.5----
2024-04-14 02:48 am-------30.00-- 74.5----
2024-04-14 02:42 am-------30.00-- 74.3----
2024-04-14 02:36 am-------30.00-- 74.3----
2024-04-14 02:30 am-------30.01-- 74.3----
2024-04-14 02:24 am-------30.01-- 74.3----
2024-04-14 02:18 am-------30.02-- 74.5----
2024-04-14 02:12 am-------30.02-- 74.5----
2024-04-14 02:06 am-------30.02-- 74.5----
2024-04-14 02:00 am-------30.02-0.02- 74.5----
2024-04-14 01:54 am-------30.02-- 74.5----
2024-04-14 01:48 am-------30.02-- 74.5----
2024-04-14 01:42 am-------30.01-- 74.5----
2024-04-14 01:36 am-------30.02-- 74.5----
2024-04-14 01:30 am-------30.02-- 74.5----
2024-04-14 01:24 am-------30.02-- 74.5----
2024-04-14 01:18 am-------30.02-- 74.5----
2024-04-14 01:12 am-------30.02-- 74.3----
2024-04-14 01:06 am-------30.02-- 74.3----
2024-04-14 01:00 am-------30.02-0.03- 74.3----
2024-04-14 12:54 am-------30.02-- 74.5----
2024-04-14 12:48 am-------30.03-- 74.5----
2024-04-14 12:42 am-------30.03-- 74.5----
2024-04-14 12:36 am-------30.03-- 74.5----
2024-04-14 12:30 am-------30.03-- 74.5----
2024-04-14 12:24 am-------30.03-- 74.5----
2024-04-14 12:18 am-------30.03-- 74.5----
2024-04-14 12:12 am-------30.03-- 74.5----
2024-04-14 12:06 am-------30.03-- 74.5----
2024-04-14 12:00 am-------30.03-0.01- 74.5----
2024-04-13 11:54 pm-------30.03-- 74.5----
2024-04-13 11:48 pm-------30.03-- 74.5----
2024-04-13 11:42 pm-------30.03-- 74.5----
2024-04-13 11:36 pm-------30.04-- 74.5----
2024-04-13 11:30 pm-------30.04-- 74.5----
2024-04-13 11:24 pm-------30.04-- 74.5----
2024-04-13 11:18 pm-------30.04-- 74.5----
2024-04-13 11:12 pm-------30.04-- 74.5----
2024-04-13 11:06 pm-------30.04-- 74.5----
2024-04-13 11:00 pm-------30.04+0.00- 74.5----
2024-04-13 10:54 pm-------30.04-- 74.5----
2024-04-13 10:48 pm-------30.04-- 74.5----
2024-04-13 10:42 pm-------30.04-- 74.5----
2024-04-13 10:36 pm-------30.04-- 74.5----
2024-04-13 10:30 pm-------30.05-- 74.7----
2024-04-13 10:24 pm-------30.05-- 74.7----
2024-04-13 10:18 pm-------30.05-- 74.7----
2024-04-13 10:12 pm-------30.05-- 74.7----
2024-04-13 10:06 pm-------30.05-- 74.7----
2024-04-13 10:00 pm-------30.05+0.00- 74.7----
2024-04-13 09:54 pm-------30.05-- 74.7----
2024-04-13 09:48 pm-------30.05-- 74.7----
2024-04-13 09:42 pm-------30.05-- 74.7----
2024-04-13 09:36 pm-------30.05-- 74.7----
2024-04-13 09:30 pm-------30.05-- 74.7----
2024-04-13 09:24 pm-------30.05-- 74.7----
2024-04-13 09:18 pm-------30.05-- 74.8----
2024-04-13 09:12 pm-------30.05-- 74.8----
2024-04-13 09:06 pm-------30.05-- 74.8----
2024-04-13 09:00 pm-------30.05+0.00- 74.8----
2024-04-13 08:54 pm-------30.04-- 74.8----
2024-04-13 08:48 pm-------30.04-- 74.8----
2024-04-13 08:42 pm-------30.04-- 74.8----
2024-04-13 08:36 pm-------30.03-- 74.8----
2024-04-13 08:30 pm-------30.04-- 74.8----
2024-04-13 08:24 pm-------30.04-- 74.8----
2024-04-13 08:18 pm-------30.04-- 74.8----
2024-04-13 08:12 pm-------30.04-- 74.8----
2024-04-13 08:06 pm-------30.04-- 74.8----
2024-04-13 08:00 pm-------30.03-0.03- 74.8----
2024-04-13 07:54 pm-------30.03-- 74.8----
2024-04-13 07:48 pm-------30.03-- 75.0----
2024-04-13 07:42 pm-------30.03-- 75.0----
2024-04-13 07:36 pm-------30.03-- 75.0----
2024-04-13 07:30 pm-------30.04-- 75.0----
2024-04-13 07:24 pm-------30.04-- 75.0----
2024-04-13 07:18 pm-------30.04-- 75.0----
2024-04-13 07:12 pm-------30.05-- 75.0----
2024-04-13 07:06 pm-------30.05-- 75.0----
2024-04-13 07:00 pm-------30.05-0.03- 75.0----
2024-04-13 06:54 pm-------30.05-- 75.0----
2024-04-13 06:48 pm-------30.05-- 75.0----
2024-04-13 06:42 pm-------30.05-- 75.0----
2024-04-13 06:36 pm-------30.05-- 75.0----
2024-04-13 06:30 pm-------30.05-- 75.0----
2024-04-13 06:24 pm-------30.05-- 75.0----
2024-04-13 06:18 pm-------30.05-- 75.0----
2024-04-13 06:00 pm-------30.05-0.04- 75.0----
2024-04-13 05:54 pm-------30.05-- 75.0----
2024-04-13 05:48 pm-------30.05-------
2024-04-13 05:42 pm-------30.06-------
2024-04-13 05:36 pm-------30.06-------
2024-04-13 05:30 pm-------30.06-- 75.2----
2024-04-13 05:24 pm-------30.06-- 75.2----
2024-04-13 05:18 pm-------30.06-- 75.2----
2024-04-13 05:12 pm-------30.06-- 75.2----
2024-04-13 05:06 pm-------30.07-- 75.2----
2024-04-13 05:00 pm-------30.07-0.06- 75.2----
2024-04-13 04:54 pm-------30.07-- 75.2----
2024-04-13 04:48 pm-------30.07-- 75.2----
2024-04-13 04:42 pm-------30.07-- 75.2----
2024-04-13 04:36 pm-------30.07-- 75.2----
2024-04-13 04:30 pm-------30.08-- 75.2----
2024-04-13 04:24 pm-------30.08-- 75.2----
2024-04-13 04:18 pm-------30.08-- 75.2----
2024-04-13 04:12 pm-------30.08-- 75.2----
2024-04-13 04:06 pm-------30.08-- 75.2----
2024-04-13 04:00 pm-------30.08-0.08- 75.2----
2024-04-13 03:54 pm-------30.08-- 75.2----
2024-04-13 03:48 pm---------- 75.2----
2024-04-13 03:42 pm---------- 75.2----
2024-04-13 03:36 pm---------- 75.2----
2024-04-13 03:30 pm-------30.09-- 75.2----
2024-04-13 03:24 pm-------30.09-- 75.2----
2024-04-13 03:18 pm-------30.09-- 75.2----
2024-04-13 03:12 pm-------30.09-- 75.2----
2024-04-13 03:06 pm-------30.10-- 75.2----
2024-04-13 03:00 pm-------30.09-0.09- 75.2----
2024-04-13 02:54 pm-------30.10-- 75.2----
2024-04-13 02:48 pm-------30.10-- 75.2----
2024-04-13 02:42 pm-------30.10-- 75.2----
2024-04-13 02:36 pm-------30.11-- 75.0----
2024-04-13 02:30 pm-------30.12-- 75.0----
2024-04-13 02:24 pm-------30.12-- 75.0----
2024-04-13 02:18 pm-------30.12-- 75.0----
2024-04-13 02:12 pm-------30.12-- 75.0----
2024-04-13 02:06 pm-------30.13-- 75.0----
2024-04-13 02:00 pm-------30.13-0.05- 75.0----
2024-04-13 01:54 pm-------30.14-- 75.0----
2024-04-13 01:48 pm-------30.14-- 75.0----
2024-04-13 01:42 pm-------30.14-- 75.0----
2024-04-13 01:36 pm-------30.14-- 75.0----
2024-04-13 01:30 pm-------30.15-- 75.0----
2024-04-13 01:24 pm-------30.15-- 74.8----
2024-04-13 01:18 pm-------30.16-- 74.8----
2024-04-13 01:12 pm-------30.16-- 74.8----
2024-04-13 01:06 pm-------30.16-- 74.8----
2024-04-13 01:00 pm-------30.16+0.00- 74.7----
2024-04-13 12:54 pm-------30.16-- 74.7----
2024-04-13 12:48 pm-------30.17-- 74.7----
2024-04-13 12:42 pm-------30.17-- 74.7----
2024-04-13 12:36 pm-------30.16-- 74.7----
2024-04-13 12:30 pm-------30.17-- 74.7----
2024-04-13 12:24 pm-------30.17-- 74.5----
2024-04-13 12:18 pm-------30.18-- 74.5----
2024-04-13 12:12 pm-------30.18-- 74.5----
2024-04-13 12:06 pm-------30.18-- 74.5----
2024-04-13 12:00 pm-------30.18+0.04- 74.5----
2024-04-13 11:54 am-------30.18-- 74.3----